Regional Weather Roundup
Issued by NWS

Home | Current Version | Previous Version | Text Only | Print | Product List | Glossary On
Versions: 1 2 3 4 5 6 7 8 9 10 11 12 13 14 15 16 17 18 19 20 21 22 23 24 25 26 27 28 29 30 31 32 33 34 35 36 37 38 39 40 41 42 43 44 45 46 47 48 49 50
362
ASUS44 KFWD 300403
RWRTX
NORTH TEXAS HOURLY WEATHER ROUNDUP
NATIONAL WEATHER SERVICE FORT WORTH TX
1100 PM CDT SUN MAY 29 2016

NOTE: "FAIR" INDICATES FEW OR NO CLOUDS BELOW 12,000 FEET WITH NO
SIGNIFICANT WEATHER AND/OR OBSTRUCTIONS TO VISIBILITY.

TXZ118-119-300500-
DALLAS/FORT WORTH METROPLEX

CITY           SKY/WX    TMP DP  RH WIND       PRES   REMARKS
DFW AIRPORT    CLOUDY    73  63  70 SE5       30.04R
DALLAS LOVE    CLOUDY    74  64  71 S9        30.03R
FTW MEACHAM    CLOUDY    77  66  68 E13       30.03R
DAL-EXECUTIVE  CLOUDY    69  62  78 S9        30.04S
FTW-ALLIANCE   CLOUDY    74  66  76 SE14      30.02S
FTW-NAS-JRB    CLOUDY    76  67  73 E12       30.03R
FTW-SPINKS     CLOUDY    75  65  71 SE15G23   30.05R
ARLINGTON      LGT RAIN  73  65  75 E12       30.05R
GRAND PRAIRIE  MOCLDY    72  62  71 SE8G20    30.06R
ADDISON        CLOUDY    73  65  74 SE8       30.06S
MESQUITE       CLOUDY    70  64  81 S9        30.03F
LANCASTER      CLOUDY    67  60  78 SE16      30.04F
$$

TXZ091>094-102>105-117-120-121-131>134-300500-
NORTH CENTRAL TEXAS

CITY           SKY/WX    TMP DP  RH WIND       PRES   REMARKS
SHRMAN/DENISON CLOUDY    68  59  73 E5        30.07R
BOWIE          LGT RAIN  74  68  80 SE5       30.05S
BRIDGEPORT     CLOUDY    75  69  81 E7        30.04F THUNDER
DECATUR        CLOUDY    72  65  79 E7        30.05R
DENTON         CLOUDY    73  66  78 SE12      30.04R
MCKINNEY       CLOUDY    71  69  93 SE6       30.05R
GREENVILLE     CLOUDY    72  68  88 CALM      30.07R
ROCKWALL       CLOUDY    70  70 100 NE5       30.04S
TERRELL        CLOUDY    74  70  87 E5        30.04S
WAXAHACHIE     MOCLDY    69  63  80 E9G22     30.08R
GRANBURY       CLOUDY    79  70  73 SE10      30.01R
$$

TXZ083>090-098>101-113>116-127>130-139>142-154-155-300500-
WESTERN NORTH TEXAS

CITY           SKY/WX    TMP DP  RH WIND       PRES   REMARKS
WICHITA FALLS  LGT RAIN  67  63  87 NE7       30.08R
WF-KICKAPOO    RAIN      69  64  84 N12G17    30.08F
VERNON         CLOUDY    65  58  77 N9        30.13S
ABILENE        RAIN      65  65 100 N21G32    30.00F FOG
ABILENE-DYESS  TSTM      64  60  85 N24       30.03R
BRECKENRIDGE   TSTM      68  67  97 NW15G36   30.04R VSB 1/2
MINERAL WELLS  CLOUDY    77  69  76 E9        29.99R
STEPHENVILLE   CLOUDY    77  67  71 SE9       30.04R
COMANCHE       CLOUDY    78  69  74 S14G22    30.01R
BROWNWOOD      CLOUDY    79  68  69 SE16G24   29.99R
COLEMAN        MOCLDY    79  67  66 S12G18    29.98R
$$

TXZ143>147-156>162-174-175-300500-
CENTRAL TEXAS

CITY           SKY/WX    TMP DP  RH WIND       PRES   REMARKS
WACO           CLOUDY    79  69  71 SE10      30.01F
WACO-TSTC      CLEAR     77  72  83 SE5       30.02F
WACO-MCGREGOR  CLOUDY    77  70  79 SE9       30.02S
HILLSBORO      CLOUDY    76  70  82 E8        30.04R
CORSICANA      CLOUDY    77  70  79 SE6       30.04F
MEXIA          CLOUDY    76  71  85 S7        30.04S
HEARNE         PTCLDY    78  73  83 SE8       30.05S
CAMERON        CLEAR     77  70  80 SE7       30.03F
TEMPLE         CLEAR     78  70  76 SE14      30.01F
KILLEEN        CLEAR     75  70  84 S8        30.00F
KILLEEN-SKYLRK CLEAR     78  70  76 SE15G21   30.00F
FORT HOOD      CLEAR     76  69  79 S12       29.98F
GATESVILLE     CLEAR     77  70  78 SE6       30.03S
HAMILTON       CLOUDY    76  69  78 S10       30.03R
LAMPASAS       CLEAR     77  70  80 SE10G18   30.01F
$$

TXZ095>097-106>112-122>126-135>138-148>153-164>167-300500-
EAST TEXAS

CITY           SKY/WX    TMP DP  RH WIND       PRES   REMARKS
PARIS          CLOUDY    70  57  64 E15       30.10R
SULPHUR SPRNGS CLOUDY    74  65  73 E10       30.10R
MOUNT PLEASANT CLOUDY    76  62  60 E8        30.10R
GILMER         CLOUDY    75  70  83 CALM      30.07F
MINEOLA        CLOUDY    75  72  88 CALM      30.07R
TYLER          CLOUDY    76  68  76 SE7       30.06R
LONGVIEW       CLOUDY    73  70  90 CALM      30.07R
ATHENS         CLOUDY    73  73 100 SE3       30.04S
PALESTINE      CLEAR     76  72  87 E3        30.07S
JACKSONVILLE   CLEAR     75  68  78 SE3       30.10R
HENDERSON      PTCLDY    70  68  94 CALM      30.09R
CENTER         CLOUDY    76  74  95 CALM      30.08R
NACOGDOCHES    CLEAR     70  66  88 SE3       30.07F
LUFKIN         PTCLDY    74  69  85 SE5       30.08R
$$

SUPPLEMENTAL OBSERVATIONS (CENTRAL)

CITY           SKY/WX    TMP DP  RH WIND       PRES   REMARKS
$$

SUPPLEMENTAL OBSERVATIONS (WEST)

CITY           SKY/WX    TMP DP  RH WIND       PRES   REMARKS
$$

SUPPLEMENTAL OBSERVATIONS (EAST)

CITY           SKY/WX    TMP DP  RH WIND       PRES   REMARKS
$$

SUPPLEMENTAL OBSERVATIONS ARE A COLLECTION OF AUTOMATED INSTRUMENTS
THAT ARE MAINTAINED BY A VARIETY OF FEDERAL AND STATE AGENCIES.
CERTAIN ELEMENTS...SUCH AS HUMIDITY VALUES AND SUSTAINED WIND
SPEEDS...MAY BE APPROXIMATED.





USA.gov is the U.S. government's official web portal to all federal, state and local government web resources and services.